9VYFC WSSL-WSSL

Flight info

Callsign 9VYFC
Flight time 0h 9m
Altitude 1000
Route CIRCUITS
Aircraft DA40/L-SDE1FGHILORVWXY/IB1D1

Departure

Time 2026-05-05 13:13
Airport Seletar Airport (WSSL)

Arrival

Time 2026-05-05 13:22
Airport Seletar Airport (WSSL)
Time Latitude Longitude Altitude Speed Heading
2026-05-05 12:50 1.41425 103.86349 49 ft 0 kts 149°
2026-05-05 13:02 1.41420 103.86352 49 ft 5 kts 150°
2026-05-05 13:02 1.41388 103.86378 49 ft 1 kts 87°
2026-05-05 13:03 1.41403 103.86392 49 ft 5 kts 31°
2026-05-05 13:03 1.41445 103.86420 49 ft 10 kts 31°
2026-05-05 13:03 1.41480 103.86455 49 ft 7 kts 36°
2026-05-05 13:03 1.41522 103.86482 49 ft 0 kts 358°
2026-05-05 13:04 1.41523 103.86481 49 ft 0 kts 349°
2026-05-05 13:07 1.41530 103.86485 29 ft 4 kts 38°
2026-05-05 13:07 1.41564 103.86512 49 ft 3 kts 49°
2026-05-05 13:07 1.41565 103.86523 49 ft 3 kts 112°
2026-05-05 13:08 1.41551 103.86544 49 ft 0 kts 122°
2026-05-05 13:10 1.41550 103.86547 49 ft 4 kts 122°
2026-05-05 13:10 1.41524 103.86585 50 ft 9 kts 121°
2026-05-05 13:10 1.41492 103.86621 50 ft 4 kts 166°
2026-05-05 13:11 1.41455 103.86608 50 ft 11 kts 215°
2026-05-05 13:11 1.41353 103.86530 49 ft 17 kts 217°
2026-05-05 13:11 1.41313 103.86502 49 ft 1 kts 142°
2026-05-05 13:11 1.41313 103.86514 49 ft 4 kts 60°
2026-05-05 13:12 1.41326 103.86524 49 ft 0 kts 31°
2026-05-05 13:12 1.41403 103.86574 49 ft 36 kts 31°
2026-05-05 13:12 1.41744 103.86798 69 ft 74 kts 33°
2026-05-05 13:12 1.42169 103.87083 254 ft 74 kts 34°
2026-05-05 13:13 1.42601 103.87386 416 ft 77 kts 36°
2026-05-05 13:13 1.43040 103.87705 585 ft 79 kts 26°
2026-05-05 13:13 1.43553 103.87667 739 ft 81 kts 328°
2026-05-05 13:13 1.43899 103.87209 886 ft 84 kts 299°
2026-05-05 13:14 1.44038 103.86643 989 ft 91 kts 241°
2026-05-05 13:14 1.43554 103.86244 1058 ft 89 kts 212°
2026-05-05 13:14 1.43051 103.85899 1033 ft 88 kts 213°
2026-05-05 13:14 1.42523 103.85521 1024 ft 99 kts 214°
2026-05-05 13:15 1.41957 103.85103 1023 ft 102 kts 216°
2026-05-05 13:15 1.41412 103.84710 1020 ft 85 kts 216°
2026-05-05 13:15 1.40964 103.84369 893 ft 83 kts 217°
2026-05-05 13:15 1.40458 103.84145 726 ft 81 kts 163°
2026-05-05 13:16 1.40110 103.84565 540 ft 82 kts 118°
2026-05-05 13:16 1.39849 103.85061 374 ft 79 kts 117°
2026-05-05 13:16 1.39806 103.85565 402 ft 79 kts 53°
2026-05-05 13:16 1.40282 103.85849 270 ft 75 kts 32°
2026-05-05 13:17 1.40722 103.86130 93 ft 77 kts 33°
2026-05-05 13:17 1.41121 103.86392 48 ft 55 kts 34°
2026-05-05 13:17 1.41406 103.86576 49 ft 58 kts 34°
2026-05-05 13:17 1.41811 103.86849 160 ft 73 kts 35°
2026-05-05 13:18 1.42212 103.87152 332 ft 75 kts 38°
2026-05-05 13:18 1.42620 103.87475 506 ft 76 kts 39°
2026-05-05 13:18 1.43118 103.87676 642 ft 81 kts 352°
2026-05-05 13:18 1.43544 103.87352 804 ft 82 kts 304°
2026-05-05 13:19 1.43862 103.86855 917 ft 90 kts 292°
2026-05-05 13:19 1.43684 103.86341 1058 ft 86 kts 215°
2026-05-05 13:19 1.43160 103.85982 1012 ft 94 kts 213°
2026-05-05 13:19 1.42633 103.85589 1016 ft 96 kts 219°
2026-05-05 13:20 1.42135 103.85165 1045 ft 95 kts 219°
2026-05-05 13:20 1.41608 103.84752 1034 ft 92 kts 215°
2026-05-05 13:20 1.41134 103.84398 947 ft 83 kts 217°
2026-05-05 13:20 1.40656 103.84086 791 ft 84 kts 188°
2026-05-05 13:21 1.40269 103.84418 666 ft 78 kts 118°
2026-05-05 13:21 1.40001 103.84905 480 ft 81 kts 121°
2026-05-05 13:21 1.39786 103.85388 397 ft 73 kts 83°
2026-05-05 13:21 1.40128 103.85732 307 ft 72 kts 30°
2026-05-05 13:22 1.40575 103.86033 161 ft 78 kts 34°
2026-05-05 13:22 1.41003 103.86314 55 ft 65 kts 32°
2026-05-05 13:22 1.41315 103.86514 49 ft 47 kts 32°
2026-05-05 13:22 1.41692 103.86763 109 ft 74 kts 34°
2026-05-05 13:23 1.42115 103.87045 299 ft 73 kts 36°
2026-05-05 13:23 1.42536 103.87338 472 ft 74 kts 34°
2026-05-05 13:23 1.42975 103.87571 629 ft 65 kts 15°
2026-05-05 13:23 1.43425 103.87370 363 ft 79 kts 315°
2026-05-05 13:24 1.43819 103.87003 213 ft 76 kts 320°
2026-05-05 13:24 1.44034 103.86586 374 ft 69 kts 255°
2026-05-05 13:24 1.43664 103.86280 521 ft 73 kts 200°
2026-05-05 13:24 1.43169 103.86027 620 ft 87 kts 217°
2026-05-05 13:25 1.42662 103.85661 777 ft 89 kts 214°
2026-05-05 13:25 1.42145 103.85301 934 ft 94 kts 221°
2026-05-05 13:25 1.41669 103.84857 1085 ft 88 kts 223°
2026-05-05 13:25 1.41236 103.84485 1033 ft 79 kts 215°
2026-05-05 13:26 1.40773 103.84132 880 ft 87 kts 215°
2026-05-05 13:26 1.40287 103.84255 741 ft 81 kts 121°
2026-05-05 13:26 1.40014 103.84744 575 ft 79 kts 119°
2026-05-05 13:26 1.39747 103.85216 410 ft 78 kts 117°
2026-05-05 13:27 1.39927 103.85639 317 ft 71 kts 27°
2026-05-05 13:27 1.40363 103.85895 238 ft 77 kts 33°
2026-05-05 13:27 1.40812 103.86188 72 ft 77 kts 33°
2026-05-05 13:27 1.41189 103.86434 49 ft 51 kts 32°